[[[{"header":{"parameterUnit":"kt","parameterCategory":2,"dx":1,"dy":1,"la1":30.253999710083008,"la2":30.299108505249023,"lo1":-89.0895004272461,"lo2":-89.04439544677734,"nx":28,"ny":28,"refTime":"2022-10-26T21:00:00:Z","depth":0,"parameterNumber":1,"parameterNumberName":"U-component_of_WINDS"},"data":[-1.767,-1.7687,-1.7664,-1.7673,-1.7654,-1.7656,-1.7649,-1.7638,-1.7623,-1.7623,-1.7618,-1.7597,-1.7574,-1.7563,-1.7557,-1.7548,-1.7548,-1.7569,-1.7555,-1.7479,-1.7467,-1.7456,-1.7451,-1.7569,-1.7569,-1.7638,-1.7639,-1.764,-1.7613,-1.7594,-1.7592,-1.7575,-1.7573,-1.7538,-1.7521,-1.7522,-1.7525,-1.7508,-1.7502,-1.75,-1.7496,-1.7465,-1.7457,-1.7464,-1.7448,-1.7463,-1.7464,-1.7461,-1.7378,-1.7373,-1.7476,-1.7476,-1.7476,-1.7476,-1.7476,-1.7476,-1.7503,-1.7514,-1.7491,-1.7488,-1.7474,-1.7462,-1.7469,-1.7443,-1.7441,-1.7431,-1.7404,-1.7407,-1.7386,-1.7366,-1.7354,-1.7355,-1.7335,-1.7345,-1.7348,-1.7352,-1.7359,-1.7263,-1.7353,-1.7352,-1.7352,-1.7351,-1.7351,0,-1.7416,-1.7396,-1.7394,-1.7384,-1.7381,-1.7372,-1.7359,-1.7363,-1.7315,-1.7315,-1.7314,-1.731,-1.7301,-1.7298,-1.7286,-1.7271,-1.7238,-1.7231,-1.7239,-1.7253,-1.7267,-1.7261,-1.7128,-1.723,-1.7229,-1.7228,-1.7227,-1.7227,-1.7305,-1.7321,-1.7286,-1.7287,-1.7275,-1.7278,-1.7275,-1.7231,-1.723,-1.7208,-1.7221,-1.7216,-1.7211,-1.7213,-1.7185,-1.7179,-1.7163,-1.7204,-1.7162,-1.7174,-1.7166,-1.7166,-1.7168,-1.7215,-1.7216,-1.7218,-1.7219,0,-1.7245,-1.7209,-1.7227,-1.7191,-1.7183,-1.7202,-1.7171,-1.7181,-1.7155,-1.7165,-1.7165,-1.7126,-1.7126,-1.709,-1.7083,-1.7065,-1.7095,-1.7078,-1.7101,-1.7097,-1.7131,-1.7129,-1.7247,-1.7261,-1.7136,-1.7137,-1.7138,0,-1.7138,-1.716,-1.7106,-1.7118,-1.7141,-1.7097,-1.7121,-1.7102,-1.7084,-1.7091,-1.7046,-1.7054,-1.7007,-1.701,-1.6983,-1.7,-1.6999,-1.6987,-1.698,-1.6992,-1.6994,-1.6994,-1.6989,-1.6961,-1.6961,-1.696,-1.696,0,-1.705,-1.7047,-1.7066,-1.706,-1.7026,-1.7036,-1.7022,-1.7001,-1.7,-1.6991,-1.6989,-1.6982,-1.6979,-1.6974,-1.694,-1.6913,-1.696,-1.6916,-1.6948,-1.6949,-1.6964,-1.6964,-1.7074,-1.6959,-1.6959,-1.6959,-1.6959,0,-1.6959,-1.6951,-1.6984,-1.6954,-1.6956,-1.6969,-1.6959,-1.6962,-1.6944,-1.6927,-1.692,-1.6888,-1.69,-1.6858,-1.6875,-1.6849,-1.6848,-1.6837,-1.6839,-1.684,-1.6796,-1.6865,-1.6972,-1.6983,-1.6838,-1.6836,-1.6836,0,-1.6868,-1.6892,-1.6856,-1.6888,-1.6895,-1.6845,-1.6858,-1.6844,-1.6823,-1.6826,-1.6803,-1.6806,-1.6768,-1.6765,-1.6777,-1.6755,-1.6787,-1.6748,-1.6754,-1.6755,-1.6762,-1.6859,-1.6886,-1.6952,-1.6822,-1.6824,-1.6825,0,-1.6795,-1.6754,-1.6763,-1.6754,-1.6729,-1.6734,-1.6749,-1.6743,-1.6747,-1.6736,-1.6748,-1.6752,-1.6723,-1.6719,-1.6692,-1.6707,-1.6764,-1.6675,-1.6674,-1.6693,-1.6812,-1.6837,-1.6848,-1.6742,-1.6744,-1.6745,-1.6814,0,-1.6668,-1.6676,-1.6697,-1.6681,-1.668,-1.6698,-1.6662,-1.6665,-1.6639,-1.6618,-1.6635,-1.6615,-1.6611,-1.6614,-1.659,-1.6635,-1.6623,-1.6593,-1.6552,-1.6616,-1.6638,-1.6647,-1.6522,-1.6521,-1.652,-1.6519,0,0,-1.6591,-1.6602,-1.6564,-1.6577,-1.6574,-1.6523,-1.6546,-1.6537,-1.6521,-1.652,-1.6496,-1.6501,-1.6487,-1.6512,-1.6528,-1.6526,-1.6531,-1.6512,-1.6586,-1.6593,-1.66,-1.6624,-1.6634,-1.6517,-1.6516,-1.6516,-1.6515,0,-1.6538,-1.6524,-1.6548,-1.6536,-1.6518,-1.6495,-1.65,-1.6475,-1.6462,-1.6479,-1.6439,-1.6444,-1.645,-1.644,-1.6436,-1.6506,-1.6477,-1.6507,-1.6558,-1.6575,-1.6584,-1.6592,-1.6618,-1.6627,-1.6513,-1.6513,-1.6513,0,-1.6461,-1.6441,-1.6449,-1.6439,-1.6427,-1.6436,-1.6383,-1.6395,-1.6401,-1.6347,-1.6365,-1.635,-1.6335,-1.6363,-1.6374,-1.6354,-1.6429,-1.6399,-1.6406,-1.6407,-1.6422,-1.6433,-1.6443,-1.6314,-1.6313,-1.6313,0,0,-1.642,-1.6428,-1.6395,-1.6425,-1.642,-1.6387,-1.6388,-1.6363,-1.635,-1.6346,-1.6326,-1.6315,-1.6318,-1.6321,-1.6321,-1.6357,-1.6351,-1.6376,-1.6386,-1.6393,-1.6399,-1.6416,-1.6427,-1.6311,-1.6311,-1.6311,0,0,-1.6401,-1.6364,-1.6341,-1.6372,-1.636,-1.6331,-1.6351,-1.6322,-1.6319,-1.6314,-1.6273,-1.6268,-1.6294,-1.6282,-1.6258,-1.6307,-1.6267,-1.6272,-1.6314,-1.6326,-1.6335,-1.6338,-1.6204,0,0,0,0,0,-1.633,-1.6368,-1.6348,-1.6348,-1.6337,-1.6342,-1.6341,-1.6308,-1.628,-1.6296,-1.6275,-1.6244,-1.626,-1.6238,-1.6239,-1.6267,-1.6284,-1.6289,-1.6293,-1.6356,-1.6369,-1.6379,0,0,0,0,0,0,-1.633,-1.633,-1.6346,-1.6319,-1.6317,-1.6341,-1.6286,-1.6278,-1.6277,-1.6271,-1.6248,-1.6243,-1.6215,-1.6235,-1.6237,-1.6264,-1.6203,-1.6286,-1.629,-1.6294,-1.636,-1.637,-1.6379,0,0,0,0,0,-1.6329,-1.6329,-1.632,-1.6319,-1.6316,-1.6281,-1.6285,-1.6278,-1.6276,-1.6245,-1.6238,-1.6252,-1.6217,-1.6216,-1.6236,-1.6264,-1.6202,-1.6203,-1.6289,-1.6292,-1.6295,-1.6365,0,0,0,0,0,0,-1.6329,-1.6323,-1.6319,-1.6317,-1.6302,-1.6279,-1.6275,-1.6277,-1.625,-1.6243,-1.6246,-1.6241,-1.6219,-1.6217,-1.6217,-1.6266,-1.6201,-1.6202,-1.6202,-1.6291,-1.6294,-1.6296,0,0,0,0,0,0,-1.6323,-1.6322,-1.6318,-1.6299,-1.6294,-1.6278,-1.6274,-1.6286,-1.625,-1.6252,-1.6247,-1.6244,-1.622,-1.6219,-1.6218,-1.6239,-1.62,-1.6201,-1.6201,-1.6202,-1.6293,-1.6295,0,0,0,0,0,0,-1.6322,-1.6321,-1.6299,-1.6296,-1.6292,-1.6267,-1.6288,-1.6279,-1.6233,-1.6254,-1.6228,-1.6226,-1.6222,-1.6221,-1.6219,-1.6241,-1.624,-1.62,-1.6201,-1.6201,-1.6201,0,0,0,0,0,0,0,-1.6321,-1.6335,-1.6331,-1.6293,-1.6289,-1.6299,-1.6298,-1.6298,-1.6232,-1.623,-1.6228,-1.6227,-1.6197,-1.6198,-1.6198,-1.6242,0,0,-1.62,-1.6201,0,0,0,0,0,0,0,0,-1.6334,-1.6335,-1.6331,-1.633,-1.633,-1.6299,-1.6298,-1.6298,-1.6232,-1.6231,-1.6229,-1.6227,-1.6197,-1.6198,-1.6198,0,0,0,0,0,0,0,0,0,0,0,0,0,0,0,-1.6331,-1.633,0,-1.6299,-1.6298,-1.6298,-1.6232,-1.6231,-1.6229,-1.6228,-1.6197,-1.6198,-1.6198,0,0,0,0,0,0,0,0,0,0,0,0,0,0,0,0,0,0,0,0,0,0,0,0,0,0,0,0,0,0,0,0,0,0,0,0,0,0,0,0,0,0,0,0,0,0,0,0,0,0,0,0,0,0,0,0,0,0,0,0,0,0,0,0,0,0,0,0,0]}],[{"header":{"parameterUnit":"kt","parameterCategory":2,"dx":1,"dy":1,"la1":30.253999710083008,"la2":30.299108505249023,"lo1":-89.0895004272461,"lo2":-89.04439544677734,"nx":28,"ny":28,"refTime":"2022-10-26T21:00:00:Z","depth":0,"parameterNumber":2,"parameterNumberName":"V-component_of_WINDS"},"data":[-0.8302,-0.8392,-0.8459,-0.8592,-0.8676,-0.8779,-0.8838,-0.8922,-0.9006,-0.9137,-0.9224,-0.9303,-0.9416,-0.9537,-0.9637,-0.967,-0.9708,-0.9687,-0.9731,-0.9758,-0.9766,-0.9774,-0.9758,-0.9694,-0.9694,-0.9694,-0.9694,-0.9693,-0.8309,-0.8392,-0.8483,-0.8618,-0.8697,-0.8756,-0.8869,-0.8931,-0.9022,-0.9127,-0.9218,-0.934,-0.9446,-0.9569,-0.9683,-0.9726,-0.9763,-0.9752,-0.9751,-0.9768,-0.9799,-0.9781,-0.9721,-0.9721,-0.9721,-0.9721,-0.9721,-0.9721,-0.834,-0.8391,-0.8514,-0.8615,-0.8702,-0.8792,-0.8853,-0.895,-0.9041,-0.9169,-0.9235,-0.9341,-0.9461,-0.9635,-0.9711,-0.9795,-0.982,-0.9832,-0.9835,-0.9837,-0.9828,-0.9817,-0.9818,-0.9819,-0.9819,-0.9819,-0.982,0,-0.8386,-0.844,-0.8534,-0.8647,-0.8725,-0.882,-0.892,-0.896,-0.9103,-0.9172,-0.9279,-0.9353,-0.9499,-0.9608,-0.9732,-0.9812,-0.9885,-0.99,-0.9909,-0.9879,-0.9833,-0.9859,-0.9906,-0.9901,-0.9902,-0.9903,-0.9903,-0.9904,-0.8423,-0.8476,-0.864,-0.8696,-0.8769,-0.8858,-0.8927,-0.9049,-0.9116,-0.9258,-0.9298,-0.9409,-0.9506,-0.9667,-0.9784,-0.9894,-0.9931,-0.9921,-0.9949,-0.9915,-0.9932,-0.9928,-0.9934,-0.9914,-0.9913,-0.9912,-0.9911,0,-0.8437,-0.8554,-0.8659,-0.8818,-0.886,-0.8909,-0.9046,-0.9103,-0.9194,-0.9286,-0.9314,-0.9457,-0.9561,-0.9681,-0.9826,-0.9885,-0.9966,-1.0,-0.9925,-0.9938,-0.9942,-0.994,-0.9934,-0.9939,-1.0006,-1.0005,-1.0004,0,-0.8516,-0.8581,-0.8752,-0.8807,-0.8883,-0.9007,-0.9078,-0.9164,-0.9272,-0.9346,-0.9449,-0.9516,-0.966,-0.9744,-0.9833,-0.9921,-0.9948,-1.0,-1.0023,-0.9992,-0.9985,-1.0032,-1.0035,-1.0073,-1.0073,-1.0073,-1.0073,0,-0.8528,-0.8697,-0.8787,-0.8845,-0.9025,-0.9064,-0.914,-0.9264,-0.9331,-0.9436,-0.9481,-0.9596,-0.9659,-0.9746,-0.9859,-0.9873,-0.9969,-1.0013,-1.0023,-1.0019,-1.004,-1.0038,-0.9999,-1.0073,-1.0073,-1.0073,-1.0073,0,-0.8612,-0.8716,-0.883,-0.8982,-0.9022,-0.9082,-0.9203,-0.9283,-0.9406,-0.9466,-0.9551,-0.9636,-0.9724,-0.9757,-0.988,-0.9866,-0.9922,-0.998,-0.9983,-1.0,-1.0035,-0.9999,-0.9949,-0.9949,-1.0011,-1.0011,-1.0011,0,-0.8592,-0.874,-0.8849,-0.8955,-0.904,-0.9151,-0.922,-0.9327,-0.9414,-0.9499,-0.9595,-0.9692,-0.9743,-0.9791,-0.9835,-0.9939,-0.9957,-0.994,-1.0062,-1.0065,-1.0026,-0.9981,-0.9945,-0.9945,-1.0006,-1.0006,-1.0007,0,-0.8594,-0.8814,-0.8826,-0.8898,-0.9061,-0.9134,-0.9212,-0.9337,-0.9387,-0.9498,-0.9568,-0.9707,-0.9752,-0.983,-0.9913,-0.9953,-0.9948,-0.9996,-1.0001,-0.9983,-1.0014,-0.9978,-0.9978,-0.9995,-0.9995,-0.9996,-1.0003,0,-0.8693,-0.8785,-0.8821,-0.8978,-0.9054,-0.9129,-0.9261,-0.9322,-0.9394,-0.9486,-0.9591,-0.9715,-0.9843,-0.9876,-0.9948,-1.0001,-1.0012,-1.0059,-1.0104,-1.0072,-1.0078,-1.0081,-1.0084,-1.0086,-1.0088,-1.0089,0,0,-0.8647,-0.8781,-0.8902,-0.8985,-0.9057,-0.9175,-0.9242,-0.9326,-0.9494,-0.9541,-0.9566,-0.9781,-0.9881,-0.9996,-0.9997,-1.0049,-1.0071,-1.0078,-1.0086,-1.0085,-1.0085,-1.0088,-1.0089,-1.0092,-1.0093,-1.0093,-1.0094,0,-0.8712,-0.881,-0.8877,-0.8969,-0.9111,-0.9206,-0.9221,-0.9383,-0.9446,-0.9551,-0.9649,-0.9729,-0.9899,-0.9992,-1.0062,-1.0066,-1.0137,-1.0095,-1.0053,-1.0099,-1.0096,-1.0093,-1.0095,-1.0094,-1.0098,-1.0098,-1.0098,0,-0.8738,-0.8857,-0.8904,-0.9074,-0.9169,-0.9256,-0.9334,-0.9423,-0.9488,-0.9617,-0.9721,-0.9807,-0.9944,-1.0036,-1.0082,-1.0108,-1.0189,-1.0188,-1.0181,-1.019,-1.0241,-1.0237,-1.0233,-1.0282,-1.0282,-1.0282,0,0,-0.8776,-0.8863,-0.9032,-0.9099,-0.9151,-0.9295,-0.9355,-0.9435,-0.9555,-0.9603,-0.9717,-0.9831,-0.9932,-0.9995,-1.0097,-1.018,-1.0219,-1.0205,-1.0196,-1.0189,-1.0193,-1.0242,-1.0238,-1.0282,-1.0282,-1.0282,0,0,-0.8796,-0.8995,-0.9047,-0.9141,-0.9251,-0.9424,-0.946,-0.9528,-0.9634,-0.9641,-0.9781,-0.9818,-0.9907,-0.999,-0.9978,-1.0116,-1.0157,-1.0163,-1.0059,-1.005,-1.0042,-1.0021,-1.0078,0,0,0,0,0,-0.8933,-0.897,-0.9015,-0.9051,-0.927,-0.9398,-0.9427,-0.9544,-0.9569,-0.9594,-0.9701,-0.9774,-1.0012,-1.0005,-1.0039,-1.0052,-1.0286,-1.0286,-1.0285,-1.0172,-1.0161,-1.0152,0,0,0,0,0,0,-0.8948,-0.8991,-0.9015,-0.9187,-0.9237,-0.9398,-0.9467,-0.95,-0.957,-0.9582,-0.975,-0.9779,-0.9881,-0.9996,-1.0024,-1.0034,-1.0069,-1.0286,-1.0285,-1.0285,-1.0168,-1.0159,-1.0151,0,0,0,0,0,-0.896,-0.8996,-0.9316,-0.9187,-0.9231,-0.9395,-0.9467,-0.9495,-0.9551,-0.9718,-0.9749,-0.9633,-0.9878,-0.9911,-1.0013,-1.0018,-1.005,-1.006,-1.0286,-1.0285,-1.0285,-1.0164,0,0,0,0,0,0,-0.897,-0.9023,-0.9328,-0.9345,-0.9183,-0.9388,-0.9424,-0.949,-0.9685,-0.9716,-0.9607,-0.9614,-0.9877,-0.9902,-0.9927,-1.0006,-1.0034,-1.0045,-1.0051,-1.0285,-1.0285,-1.0284,0,0,0,0,0,0,-0.9005,-0.9036,-0.9337,-0.9325,-0.9342,-0.9381,-0.9414,-0.9519,-0.9686,-0.9564,-0.9576,-0.9608,-0.9841,-0.9896,-0.9916,-1.0075,-1.0022,-1.0032,-1.0039,-1.0044,-1.0285,-1.0285,0,0,0,0,0,0,-0.902,-0.9048,-0.9321,-0.9334,-0.935,-0.9557,-0.9477,-0.9695,-0.9674,-0.9553,-0.9676,-0.9676,-0.9833,-0.9855,-0.9908,-1.0058,-1.0071,-1.0023,-1.003,-1.0034,-1.0038,0,0,0,0,0,0,0,-0.9033,-0.882,-0.9223,-0.9342,-0.9356,-0.9509,-0.9514,-0.9519,-0.9674,-0.9675,-0.9675,-0.9676,-0.9966,-0.9976,-0.9988,-1.0044,0,0,-1.0022,-1.0027,0,0,0,0,0,0,0,0,-0.8811,-0.8818,-0.9223,-0.9227,-0.923,-0.951,-0.9514,-0.9518,-0.9674,-0.9675,-0.9675,-0.9676,-0.9969,-0.9977,-0.9986,0,0,0,0,0,0,0,0,0,0,0,0,0,0,0,-0.9223,-0.9226,0,-0.951,-0.9513,-0.9517,-0.9674,-0.9675,-0.9675,-0.9676,-0.9971,-0.9978,-0.9986,0,0,0,0,0,0,0,0,0,0,0,0,0,0,0,0,0,0,0,0,0,0,0,0,0,0,0,0,0,0,0,0,0,0,0,0,0,0,0,0,0,0,0,0,0,0,0,0,0,0,0,0,0,0,0,0,0,0,0,0,0,0,0,0,0,0,0,0,0]}]]]